Simultaneous Nadir Overpasses (SNOs) Predictions

Prediction of SNOs between NOAA-19 and NPP Satellite Orbit:

Table of predicted SNOs for the next 14.0 days since TLE Epoch: 3/7/2017
Index Date (NOAA-19) Time (NOAA-19) Lat,Lon (NOAA-19) SZA (NOAA-19 ) Date (NPP) Time (NPP) Lat,Lon (NPP) SZA (NPP ) Distance(km) Time Diff (sec)
1 03/16/2017 19:48:14 80.88,-168.06 85.93 03/16/2017 19:49:26 80.88,-168.18 85.90 2.08 72
2 03/16/2017 20:39:10 -80.88, -0.88 94.08 03/16/2017 20:40:11 -80.88, -0.83 94.12 0.98 61
3 03/16/2017 21:30:16 80.88, 166.32 85.91 03/16/2017 21:30:56 80.88, 166.39 85.88 1.27 40
4 03/16/2017 22:21:11 -80.89, -26.13 94.14 03/16/2017 22:21:41 -80.88, -26.26 94.14 2.36 30
5 03/16/2017 23:12:17 80.89, 141.07 85.85 03/16/2017 23:12:26 80.89, 140.96 85.86 2.01 9
6 03/17/2017
